Tracking 19576 objects as of 17-Feb-2019
HD Live streaming from Space Station
objects crossing your sky now

THOR 2A

Track THOR 2A now!
THOR 2A is classified as:


NORAD ID: 24808
Int'l Code: 1997-025A
Perigee: 36,123.2 km
Apogee: 36,200.5 km
Inclination: 7.8 °
Period: 1,454.9 minutes
Semi major axis: 42532 km
RCS: 15.8489 m2 (large)
Launch date: May 20, 1997
Source: Norway (NOR)
Launch site: AIR FORCE EASTERN TEST RANGE (AFETR)

15 Ku-band; Nordic region, northern Europe.
aabbcc
Your satellite tracking list
Your tracking list is empty




NASA's NSSDC Master Catalog

Two Line Element Set (TLE):
1 24808U 97025A   19047.63597733 -.00000086 +00000-0 +00000-0 0  9994
2 24808 007.7649 048.6741 0009088 272.1109 074.8493 00.98973009019576
Source of the keplerian elements: AFSPC